When you browse on this site, cookies collect data to enhance your experience and personalize the content and advertising you see.
Visit our Privacy Policy to learn more. By continuing to use the site, you agree to this use of cookies and data.
  • In Netherlands
  • List of Countries
  • For 7 days
  • Water Temperature
  • Satellite Maps
  • Weather Map
  • Weather Widgets
  • user-avatar
    Login

    Hourly Weather Aleksandrów Łódzki

    Today, 19 June, Wednesday

    Time Temperature Precipitation Wind Pressure Humidity
    00:00 +18°C° 0 mm 3 mps 745 mmHg 84%
    01:00 +18°C° 0 mm 3 mps 745 mmHg 84%
    02:00 +18°C° 0 mm 3 mps 745 mmHg 85%
    03:00 +18°C° 0 mm 3 mps 745 mmHg 87%
    04:00 +17°C° 0 mm 3 mps 744 mmHg 88%
    05:00 +19°C° 0.1 mm 3 mps 744 mmHg 84%
    06:00 +21°C° 0.1 mm 3 mps 744 mmHg 80%
    07:00 +22°C° 0 mm 3 mps 744 mmHg 76%
    08:00 +25°C° 0.3 mm 3 mps 744 mmHg 70%
    09:00 +26°C° 0.3 mm 3 mps 744 mmHg 65%
    10:00 +27°C° 0.3 mm 3 mps 743 mmHg 59%
    11:00 +28°C° 0.1 mm 2 mps 743 mmHg 55%
    12:00 +29°C° 0.1 mm 2 mps 743 mmHg 51%
    13:00 +30°C° 0 mm 2 mps 743 mmHg 47%
    14:00 +30°C° 0.2 mm 2 mps 742 mmHg 48%
    15:00 +30°C° 0.2 mm 2 mps 742 mmHg 49%
    16:00 +30°C° 0.2 mm 2 mps 742 mmHg 50%
    17:00 +28°C° 0.1 mm 2 mps 741 mmHg 56%
    18:00 +27°C° 0.1 mm 2 mps 741 mmHg 63%
    19:00 +25°C° 0.1 mm 2 mps 741 mmHg 69%
    20:00 +24°C° 0.1 mm 2 mps 741 mmHg 73%
    21:00 +22°C° 0.1 mm 3 mps 741 mmHg 76%
    22:00 +21°C° 0.1 mm 3 mps 741 mmHg 79%
    23:00 +21°C° 0 mm 3 mps 741 mmHg 80%

    Tomorrow, 20 June, Thursday

    Time Temperature Precipitation Wind Pressure Humidity
    00:00 +20°C° 0 mm 2 mps 741 mmHg 81%
    01:00 +20°C° 0 mm 2 mps 741 mmHg 82%
    02:00 +20°C° 0 mm 2 mps 741 mmHg 83%
    03:00 +20°C° 0 mm 2 mps 741 mmHg 83%
    04:00 +20°C° 0 mm 2 mps 741 mmHg 83%
    05:00 +21°C° 0 mm 2 mps 741 mmHg 80%
    06:00 +23°C° 0 mm 2 mps 741 mmHg 77%
    07:00 +24°C° 0 mm 3 mps 741 mmHg 74%
    08:00 +25°C° 0 mm 2 mps 741 mmHg 67%
    09:00 +27°C° 0 mm 2 mps 741 mmHg 61%
    10:00 +28°C° 0 mm 2 mps 741 mmHg 55%
    11:00 +29°C° 0 mm 2 mps 741 mmHg 51%
    12:00 +30°C° 0 mm 2 mps 741 mmHg 48%
    13:00 +31°C° 0 mm 2 mps 741 mmHg 44%
    14:00 +31°C° 0 mm 2 mps 741 mmHg 43%
    15:00 +31°C° 0 mm 2 mps 741 mmHg 43%
    16:00 +31°C° 0 mm 1 mps 741 mmHg 43%
    17:00 +30°C° 0 mm 1 mps 741 mmHg 48%
    18:00 +29°C° 0 mm 1 mps 741 mmHg 53%
    19:00 +27°C° 0 mm 1 mps 741 mmHg 59%
    20:00 +26°C° 0.3 mm 1 mps 741 mmHg 64%
    21:00 +24°C° 0.3 mm 2 mps 741 mmHg 70%
    22:00 +23°C° 0.3 mm 2 mps 742 mmHg 75%
    23:00 +21°C° 0.5 mm 3 mps 742 mmHg 80%

    Day after tomorrow, 21 June, Friday

    Time Temperature Precipitation Wind Pressure Humidity
    00:00 +20°C° 0.5 mm 4 mps 742 mmHg 85%
    01:00 +19°C° 0.5 mm 4 mps 742 mmHg 90%
    02:00 +19°C° 0.2 mm 4 mps 742 mmHg 91%
    03:00 +18°C° 0.2 mm 3 mps 742 mmHg 92%
    04:00 +18°C° 0.2 mm 2 mps 742 mmHg 93%
    05:00 +19°C° 0 mm 3 mps 743 mmHg 89%
    06:00 +21°C° 0 mm 3 mps 743 mmHg 85%
    07:00 +22°C° 0 mm 3 mps 744 mmHg 81%
    08:00 +24°C° 0.1 mm 3 mps 744 mmHg 74%
    09:00 +25°C° 0.1 mm 3 mps 744 mmHg 67%
    10:00 +27°C° 0.1 mm 4 mps 744 mmHg 61%
    11:00 +27°C° 0.3 mm 4 mps 744 mmHg 61%
    12:00 +27°C° 0.3 mm 4 mps 744 mmHg 61%
    13:00 +27°C° 0.3 mm 4 mps 744 mmHg 61%
    14:00 +27°C° 0.2 mm 4 mps 744 mmHg 61%
    15:00 +27°C° 0.2 mm 4 mps 744 mmHg 62%
    16:00 +26°C° 0.2 mm 4 mps 744 mmHg 62%
    17:00 +25°C° 0 mm 3 mps 744 mmHg 67%
    18:00 +24°C° 0 mm 3 mps 745 mmHg 71%
    19:00 +24°C° 0 mm 2 mps 745 mmHg 76%
    20:00 +21°C° 0 mm 2 mps 745 mmHg 80%
    21:00 +20°C° 0 mm 2 mps 746 mmHg 83%
    22:00 +19°C° 0 mm 2 mps 746 mmHg 87%
    23:00 +19°C° 0 mm 3 mps 746 mmHg 90%

    22 June, Saturday

    Time Temperature Precipitation Wind Pressure Humidity
    00:00 +18°C° 0 mm 3 mps 747 mmHg 92%
    01:00 +18°C° 0 mm 3 mps 747 mmHg 94%
    02:00 +17°C° 0 mm 3 mps 747 mmHg 91%
    03:00 +17°C° 0 mm 4 mps 747 mmHg 87%
    04:00 +15°C° 0 mm 4 mps 748 mmHg 83%
    05:00 +17°C° 0 mm 4 mps 748 mmHg 82%
    06:00 +17°C° 0 mm 4 mps 748 mmHg 80%
    07:00 +18°C° 0 mm 4 mps 749 mmHg 78%
    08:00 +19°C° 0 mm 4 mps 749 mmHg 71%
    09:00 +21°C° 0 mm 4 mps 749 mmHg 64%
    10:00 +22°C° 0 mm 5 mps 749 mmHg 57%
    11:00 +23°C° 0 mm 5 mps 749 mmHg 56%
    12:00 +23°C° 0 mm 5 mps 749 mmHg 54%
    13:00 +25°C° 0 mm 5 mps 748 mmHg 52%
    14:00 +25°C° 0 mm 5 mps 748 mmHg 54%
    15:00 +24°C° 0 mm 6 mps 748 mmHg 55%
    16:00 +24°C° 0 mm 6 mps 748 mmHg 57%
    17:00 +23°C° 0 mm 5 mps 748 mmHg 61%
    18:00 +22°C° 0 mm 5 mps 748 mmHg 66%
    19:00 +21°C° 0 mm 4 mps 748 mmHg 71%
    20:00 +20°C° 0 mm 5 mps 748 mmHg 73%
    21:00 +19°C° 0 mm 5 mps 748 mmHg 75%
    22:00 +16°C° 0 mm 5 mps 748 mmHg 77%
    23:00 +16°C° 0 mm 5 mps 749 mmHg 76%

    23 June, Sunday

    Time Temperature Precipitation Wind Pressure Humidity
    00:00 +15°C° 0 mm 5 mps 749 mmHg 75%
    01:00 +14°C° 0 mm 5 mps 749 mmHg 74%
    02:00 +14°C° 0 mm 5 mps 749 mmHg 73%
    03:00 +14°C° 0 mm 5 mps 749 mmHg 72%
    04:00 +13°C° 0 mm 5 mps 749 mmHg 71%
    05:00 +13°C° 0 mm 5 mps 749 mmHg 72%
    06:00 +14°C° 0 mm 4 mps 749 mmHg 73%
    07:00 +14°C° 0 mm 4 mps 749 mmHg 74%
    08:00 +15°C° 0 mm 4 mps 749 mmHg 73%
    09:00 +17°C° 0 mm 4 mps 749 mmHg 72%
    10:00 +18°C° 0 mm 4 mps 750 mmHg 71%
    11:00 +19°C° 0 mm 4 mps 749 mmHg 69%
    12:00 +19°C° 0 mm 4 mps 749 mmHg 68%
    13:00 +20°C° 0 mm 4 mps 749 mmHg 67%
    14:00 +20°C° 0 mm 4 mps 749 mmHg 65%
    15:00 +21°C° 0 mm 4 mps 749 mmHg 64%
    16:00 +21°C° 0 mm 4 mps 749 mmHg 62%
    17:00 +21°C° 0 mm 4 mps 749 mmHg 65%
    18:00 +20°C° 0 mm 3 mps 750 mmHg 68%
    19:00 +19°C° 0 mm 3 mps 750 mmHg 71%
    20:00 +18°C° 0 mm 3 mps 750 mmHg 76%
    21:00 +17°C° 0 mm 3 mps 750 mmHg 82%
    22:00 +16°C° 0 mm 3 mps 751 mmHg 87%
    23:00 +14°C° 0 mm 3 mps 751 mmHg 89%

    24 June, Monday

    Time Temperature Precipitation Wind Pressure Humidity
    00:00 +14°C° 0 mm 3 mps 751 mmHg 91%
    01:00 +13°C° 0 mm 3 mps 751 mmHg 93%
    02:00 +13°C° 0 mm 3 mps 751 mmHg 92%
    03:00 +12°C° 0 mm 3 mps 751 mmHg 91%
    04:00 +12°C° 0 mm 3 mps 751 mmHg 89%
    05:00 +13°C° 0 mm 3 mps 751 mmHg 84%
    06:00 +16°C° 0 mm 3 mps 752 mmHg 78%
    07:00 +17°C° 0 mm 4 mps 752 mmHg 72%
    08:00 +19°C° 0 mm 4 mps 752 mmHg 67%
    09:00 +21°C° 0 mm 4 mps 752 mmHg 61%
    10:00 +22°C° 0 mm 4 mps 752 mmHg 56%
    11:00 +23°C° 0 mm 4 mps 752 mmHg 54%
    12:00 +25°C° 0 mm 4 mps 752 mmHg 52%
    13:00 +26°C° 0 mm 4 mps 752 mmHg 50%
    14:00 +26°C° 0 mm 4 mps 752 mmHg 50%
    15:00 +26°C° 0 mm 4 mps 752 mmHg 50%
    16:00 +26°C° 0 mm 4 mps 752 mmHg 50%
    17:00 +24°C° 0 mm 3 mps 752 mmHg 55%
    18:00 +22°C° 0 mm 3 mps 752 mmHg 60%
    19:00 +21°C° 0 mm 3 mps 752 mmHg 65%
    20:00 +20°C° 0 mm 2 mps 752 mmHg 67%
    21:00 +18°C° 0 mm 2 mps 752 mmHg 69%
    22:00 +17°C° 0 mm 2 mps 753 mmHg 71%
    23:00 +16°C° 0 mm 2 mps 753 mmHg 72%
    Show more